Back to catalog

COSMOS 2139

GLONASS

AliveNavigationMEO
NORAD 21216·PAYLOAD·🇷🇺 Russia

Launched Apr 4, 1991 from Baikonur Cosmodrome

Loading…

Next Passes (next 24 hours)

TLE

FreshSource: Space-Track

Epoch: Sep 14, 2026, 02:40 UTC

1 21216U 91025A   26257.11138448 -.00000038  00000-0  00000-0 0  9993
2 21216  64.3024 301.2816 0017702 220.6566 139.2810  2.13105675275826

Track COSMOS 2139 in real time with AllMySat

Download on the App Store